EW5171 Weather Reports


time (UTC)temp
C
wind
direction
speed
KPH
gust
KPH
rain 1hr
cm
rain 24hr
cm
rain mn
cm
humidity
%
barometer
mb
20260905214604 13 180 6.4 19.3 0.00 0.03 0.03 82 1013.4
20260905214057 14 296 6.4 20.9 0.00 0.03 0.03 81 1013.4
20260905213556 14 197 6.4 20.9 0.00 0.03 0.03 81 1013.3
20260905213055 14 290 3.2 14.5 0.00 0.03 0.03 81 1013.3
20260905212557 14 179 6.4 19.3 0.00 0.03 0.03 81 1013.1
20260905212053 14 238 3.2 19.3 0.00 0.03 0.03 81 1013.2
20260905211554 14 260 6.4 17.7 0.00 0.03 0.03 81 1012.9
20260905211054 14 275 6.4 22.5 0.00 0.03 0.03 81 1013.0
20260905210552 14 277 3.2 22.5 0.00 0.03 0.03 81 1012.8
20260905210104 14 267 6.4 19.3 0.00 0.03 0.03 81 1012.8
20260905205552 14 211 6.4 17.7 0.00 0.03 0.03 81 1012.8
20260905205052 14 185 4.8 20.9 0.00 0.03 0.03 81 1012.8
20260905204551 14 186 6.4 25.7 0.00 0.03 0.03 81 1012.7
20260905204051 14 276 6.4 17.7 0.00 0.03 0.03 81 1012.7
20260905203551 14 183 4.8 20.9 0.00 0.03 0.03 81 1012.6
20260905203050 14 43 8.0 22.5 0.00 0.03 0.03 81 1012.4
20260905202549 14 202 6.4 20.9 0.00 0.03 0.03 81 1012.4
20260905202048 13 306 6.4 17.7 0.00 0.03 0.03 82 1012.3
20260905201548 13 190 6.4 17.7 0.00 0.03 0.03 82 1012.3
20260905201047 13 308 8.0 19.3 0.00 0.03 0.03 82 1012.3
20260905200546 13 242 6.4 17.7 0.00 0.03 0.03 83 1012.1
20260905200053 13 275 3.2 14.5 0.00 0.03 0.03 83 1012.0
20260905195550 13 294 4.8 16.1 0.00 0.03 0.03 83 1012.1
20260905195045 13 271 3.2 16.1 0.00 0.03 0.03 82 1012.1
20260905194547 13 202 4.8 20.9 0.00 0.03 0.03 82 1011.8
20260905194044 13 292 4.8 20.9 0.00 0.03 0.03 82 1011.9
20260905193543 13 238 6.4 20.9 0.00 0.03 0.03 82 1011.8
20260905193044 13 168 3.2 17.7 0.00 0.03 0.03 82 1011.8
20260905192542 13 311 4.8 24.1 0.00 0.03 0.03 82 1011.7
20260905192040 13 209 8.0 24.1 0.00 0.03 0.03 82 1011.6
20260905191542 13 198 4.8 16.1 0.00 0.03 0.03 82 1011.4
20260905191040 13 29 6.4 20.9 0.00 0.03 0.03 82 1011.3
20260905190540 14 170 6.4 22.5 0.00 0.03 0.03 82 1011.3
20260905190046 13 306 6.4 22.5 0.00 0.03 0.03 82 1011.2
20260905185543 13 360 6.4 22.5 0.00 0.05 0.03 82 1011.3
20260905185039 14 254 6.4 24.1 0.00 0.05 0.03 82 1011.2
20260905184540 14 55 6.4 17.7 0.00 0.05 0.03 81 1011.1
20260905184041 14 185 8.0 17.7 0.00 0.05 0.03 81 1011.1
20260905183538 14 324 6.4 24.1 0.00 0.05 0.03 80 1011.0
20260905183038 14 190 6.4 29.0 0.00 0.05 0.03 80 1011.0
20260905182536 14 243 6.4 29.0 0.00 0.05 0.03 79 1010.8
20260905182040 14 291 4.8 25.7 0.00 0.05 0.03 79 1010.8
20260905181535 14 261 8.0 25.7 0.00 0.05 0.03 78 1010.7
20260905181034 14 275 6.4 25.7 0.00 0.05 0.03 78 1010.6
20260905180533 14 298 8.0 22.5 0.00 0.05 0.03 78 1010.3
20260905180133 14 182 8.0 22.5 0.00 0.05 0.03 78 1010.2
20260905175532 15 273 8.0 25.7 0.00 0.05 0.03 77 1010.2
20260905175031 15 269 8.0 25.7 0.00 0.05 0.03 77 1010.1
20260905174530 15 242 9.7 22.5 0.00 0.05 0.03 76 1010.0
20260905174030 15 192 6.4 24.1 0.00 0.05 0.03 76 1009.9
20260905173531 15 273 8.0 37.0 0.00 0.05 0.03 76 1009.9
20260905173030 15 300 8.0 37.0 0.00 0.05 0.03 75 1010.0
20260905172529 15 5 8.0 22.5 0.00 0.05 0.03 75 1009.9
20260905172030 15 321 6.4 25.7 0.00 0.05 0.03 75 1009.9
20260905171545 15 281 6.4 25.7 0.00 0.05 0.03 75 1010.0
20260905171028 15 5 6.4 25.7 0.00 0.05 0.03 74 1009.7
20260905170528 15 246 4.8 24.1 0.00 0.05 0.03 74 1009.7
20260905170028 15 205 8.0 25.7 0.00 0.05 0.03 74 1009.6
20260905165528 15 268 6.4 29.0 0.00 0.05 0.03 74 1009.5
20260905165027 15 302 9.7 29.0 0.00 0.05 0.03 75 1009.6
20260905164526 15 259 8.0 27.4 0.00 0.05 0.03 74 1009.4
20260905164025 15 251 8.0 27.4 0.00 0.05 0.03 74 1009.4
20260905163525 15 205 4.8 17.7 0.00 0.05 0.03 73 1009.2
20260905163025 15 225 4.8 30.6 0.00 0.05 0.03 73 1009.2
20260905162523 15 281 6.4 30.6 0.00 0.05 0.03 74 1009.0
20260905162123 15 247 8.0 32.2 0.00 0.05 0.03 73 1009.1
20260905161525 16 331 11.3 32.2 0.00 0.05 0.03 72 1009.0
20260905161025 16 313 6.4 27.4 0.00 0.05 0.03 72 1008.9
20260905160521 16 69 9.7 24.1 0.00 0.05 0.03 71 1008.8
20260905160034 16 239 8.0 22.5 0.00 0.05 0.03 71 1008.9
20260905155524 16 279 6.4 38.6 0.00 0.05 0.03 70 1008.7
20260905155020 16 254 6.4 38.6 0.00 0.05 0.03 70 1008.8
20260905154520 16 190 6.4 30.6 0.00 0.05 0.03 69 1008.5
20260905154021 16 254 11.3 30.6 0.00 0.05 0.03 69 1008.6
20260905153519 16 84 8.0 32.2 0.00 0.05 0.03 69 1008.4
20260905153022 16 284 11.3 32.2 0.00 0.05 0.03 68 1008.4
20260905152517 16 305 4.8 20.9 0.00 0.05 0.03 69 1008.4
20260905152018 16 213 4.8 29.0 0.00 0.05 0.03 68 1008.4
20260905151516 16 336 8.0 24.1 0.00 0.05 0.03 67 1008.3
20260905151016 17 242 9.7 24.1 0.00 0.05 0.03 67 1008.2
20260905150514 17 279 9.7 24.1 0.00 0.05 0.03 68 1008.2
20260905150014 16 300 6.4 22.5 0.00 0.05 0.03 68 1008.2
20260905145519 16 291 9.7 22.5 0.00 0.05 0.03 68 1008.1
20260905145114 17 271 6.4 22.5 0.00 0.05 0.03 70 1008.2
20260905144524 17 280 6.4 25.7 0.00 0.05 0.03 69 1008.0
20260905144018 17 220 6.4 27.4 0.00 0.05 0.03 70 1008.0
20260905143516 17 182 6.4 27.4 0.00 0.05 0.03 69 1008.0
20260905143013 17 217 8.0 32.2 0.00 0.05 0.03 69 1008.0
20260905142514 17 273 9.7 32.2 0.00 0.05 0.03 70 1008.2
20260905142012 17 209 6.4 32.2 0.00 0.05 0.03 70 1008.1
20260905141514 17 297 9.7 32.2 0.00 0.05 0.03 69 1008.0
20260905141011 17 195 8.0 27.4 0.00 0.05 0.03 66 1007.9
20260905140512 18 170 3.2 19.3 0.00 0.05 0.03 67 1007.7
20260905140018 18 105 4.8 19.3 0.00 0.05 0.03 66 1007.7
20260905135509 18 279 9.7 20.9 0.00 0.05 0.03 65 1007.6
20260905135009 18 227 9.7 22.5 0.00 0.05 0.03 65 1007.6
20260905134508 18 329 4.8 27.4 0.00 0.05 0.03 67 1007.5
20260905134008 18 232 6.4 27.4 0.00 0.05 0.03 64 1007.5
20260905133507 18 277 8.0 32.2 0.00 0.05 0.03 65 1007.6
20260905133008 18 301 8.0 32.2 0.00 0.05 0.03 65 1007.3
20260905132504 18 273 9.7 25.7 0.00 0.05 0.03 66 1007.2
20260905132003 18 194 11.3 25.7 0.00 0.05 0.03 66 1007.3
20260905131502 18 180 9.7 25.7 0.00 0.05 0.03 68 1007.3
20260905131002 18 273 9.7 20.9 0.03 0.05 0.03 67 1007.3
20260905130503 18 334 4.8 25.7 0.03 0.05 0.03 69 1007.2
20260905130101 17 300 6.4 25.7 0.03 0.05 0.03 71 1007.2
20260905125602 17 256 3.2 20.9 0.03 0.05 0.03 71 1007.1
20260905125100 17 309 8.0 20.9 0.03 0.05 0.03 72 1007.2
20260905124600 17 289 4.8 24.1 0.03 0.05 0.03 76 1007.1
20260905124058 16 188 3.2 24.1 0.03 0.05 0.03 77 1007.1
20260905123558 16 298 8.0 24.1 0.03 0.05 0.03 78 1007.2
20260905123104 16 292 8.0 24.1 0.03 0.05 0.03 81 1007.3
20260905122557 16 308 4.8 19.3 0.03 0.05 0.03 83 1007.2
20260905122100 16 176 6.4 25.7 0.03 0.05 0.03 79 1007.2
20260905121600 17 227 8.0 25.7 0.03 0.05 0.03 73 1007.2
20260905121100 18 297 6.4 29.0 0.03 0.05 0.03 70 1007.1
20260905120555 17 209 4.8 24.1 0.00 0.05 0.00 71 1006.9
20260905120106 17 190 6.4 24.1 0.00 0.05 0.00 70 1006.8
20260905115554 17 258 4.8 27.4 0.00 0.05 0.00 71 1006.7
20260905115157 17 229 6.4 27.4 0.00 0.05 0.00 71 1006.6
20260905114607 17 293 8.0 25.7 0.00 0.05 0.00 73 1006.6
20260905114054 17 270 8.0 25.7 0.00 0.05 0.00 71 1006.7
20260905113553 17 290 6.4 19.3 0.00 0.05 0.00 72 1006.6
20260905113057 17 305 4.8 24.1 0.00 0.05 0.00 72 1006.6
20260905112550 17 264 6.4 19.3 0.00 0.05 0.00 73 1006.7
20260905112049 17 288 6.4 25.7 0.00 0.05 0.00 75 1006.5
20260905111634 16 227 4.8 25.7 0.00 0.05 0.00 77 1006.6
20260905111047 16 41 8.0 27.4 0.00 0.05 0.00 79 1006.5
20260905110545 16 161 8.0 27.4 0.00 0.05 0.00 79 1006.5
20260905110045 16 140 8.0 19.3 0.00 0.05 0.00 78 1006.4
20260905105546 16 234 6.4 19.3 0.00 0.05 0.00 78 1006.4
20260905105045 16 195 6.4 16.1 0.00 0.05 0.00 78 1006.4
20260905104544 16 198 4.8 16.1 0.00 0.05 0.00 76 1006.2
20260905104043 16 257 4.8 14.5 0.00 0.05 0.00 77 1006.2
20260905103544 16 251 3.2 25.7 0.00 0.05 0.00 77 1006.2
20260905103043 16 141 6.4 25.7 0.00 0.05 0.00 77 1006.2
20260905102547 16 200 8.0 20.9 0.00 0.05 0.00 76 1006.1
20260905102142 16 98 4.8 20.9 0.00 0.05 0.00 76 1006.1
20260905101543 16 61 6.4 20.9 0.00 0.05 0.00 76 1006.1
20260905101040 16 135 6.4 19.3 0.00 0.05 0.00 77 1006.0
20260905100540 16 196 6.4 24.1 0.00 0.05 0.00 77 1006.0
20260905100040 16 179 9.7 24.1 0.00 0.05 0.00 78 1005.9
20260905095539 16 57 6.4 22.5 0.00 0.05 0.00 78 1006.0
20260905095038 16 285 6.4 19.3 0.00 0.05 0.00 78 1005.9
20260905094539 16 294 6.4 24.1 0.00 0.05 0.00 77 1005.9
20260905094040 16 220 8.0 24.1 0.00 0.05 0.00 76 1005.8
20260905093537 16 257 4.8 17.7 0.00 0.05 0.00 78 1005.8
20260905093041 16 273 6.4 20.9 0.00 0.05 0.00 77 1005.7
20260905092534 16 237 8.0 20.9 0.00 0.05 0.00 78 1005.8
20260905092034 16 173 3.2 20.9 0.00 0.05 0.00 78 1005.8
20260905091534 16 250 6.4 19.3 0.00 0.05 0.00 80 1005.7
20260905091032 16 341 4.8 17.7 0.00 0.05 0.00 81 1005.7
20260905090531 16 338 6.4 17.7 0.00 0.05 0.00 81 1005.8
20260905090030 15 294 4.8 17.7 0.00 0.05 0.00 82 1005.7
20260905085530 15 290 6.4 17.7 0.00 0.05 0.00 80 1005.7
20260905085028 15 298 4.8 16.1 0.00 0.05 0.00 82 1005.6
20260905084527 15 268 3.2 32.2 0.00 0.05 0.00 85 1005.5
20260905084026 15 9 4.8 32.2 0.00 0.05 0.00 85 1005.6
20260905083529 15 257 6.4 17.7 0.00 0.05 0.00 85 1005.5
20260905083024 15 261 3.2 11.3 0.00 0.05 0.00 85 1005.5
20260905082523 15 251 3.2 11.3 0.00 0.05 0.00 85 1005.4
20260905082023 15 178 4.8 16.1 0.00 0.05 0.00 86 1005.4
20260905081522 15 208 4.8 17.7 0.00 0.05 0.00 86 1005.4
20260905081021 15 182 6.4 17.7 0.00 0.05 0.00 86 1005.3
20260905080521 15 301 3.2 16.1 0.00 0.05 0.00 87 1005.2
20260905080028 14 273 4.8 20.9 0.00 0.05 0.00 87 1005.2
20260905075518 14 223 4.8 17.7 0.00 0.05 0.00 88 1005.2
20260905075018 14 293 4.8 17.7 0.00 0.05 0.00 88 1005.1
20260905074516 14 214 4.8 17.7 0.00 0.05 0.00 88 1005.1
20260905074014 14 270 4.8 17.7 0.00 0.05 0.00 89 1005.0
20260905073514 14 306 3.2 16.1 0.00 0.05 0.00 90 1004.9
20260905073013 13 313 4.8 14.5 0.00 0.05 0.00 90 1004.9
20260905072511 13 245 4.8 16.1 0.00 0.05 0.00 90 1004.9
20260905072010 13 290 1.6 16.1 0.00 0.05 0.00 91 1004.9
20260905071509 13 266 4.8 16.1 0.00 0.05 0.00 92 1004.9
20260905071011 13 287 3.2 16.1 0.00 0.05 0.00 92 1005.0
20260905070508 13 285 4.8 16.1 0.00 0.05 0.00 92 1004.8
20260905070019 13 39 1.6 12.9 0.00 0.05 0.00 92 1004.9
20260905065508 13 331 4.8 12.9 0.00 0.05 0.00 92 1004.8
20260905065010 13 166 1.6 12.9 0.00 0.05 0.00 92 1004.8
20260905064520 13 184 3.2 12.9 0.00 0.05 0.00 93 1004.8
20260905064005 13 266 3.2 17.7 0.00 0.05 0.00 93 1004.7
20260905063504 13 268 4.8 17.7 0.00 0.05 0.00 94 1004.7
20260905063004 12 215 1.6 12.9 0.00 0.05 0.00 94 1004.7
20260905062504 12 276 4.8 12.9 0.00 0.05 0.00 94 1004.7
20260905062000 12 281 3.2 12.9 0.00 0.05 0.00 95 1004.6
20260905061601 12 228 3.2 11.3 0.00 0.05 0.00 95 1004.7
20260905061058 12 257 3.2 11.3 0.00 0.05 0.00 95 1004.6
20260905060557 12 204 3.2 9.7 0.00 0.05 0.00 96 1004.6
20260905060058 12 194 3.2 8.0 0.00 0.05 0.00 95 1004.5
20260905055558 12 9 1.6 11.3 0.00 0.05 0.00 96 1004.5
20260905055057 11 336 1.6 11.3 0.00 0.05 0.00 95 1004.5
20260905054556 11 311 1.6 9.7 0.00 0.05 0.00 95 1004.4
20260905054056 11 281 1.6 11.3 0.00 0.05 0.00 95 1004.5
20260905053553 11 187 1.6 8.0 0.00 0.05 0.00 96 1004.4
20260905053053 11 254 3.2 8.0 0.00 0.05 0.00 96 1004.3
20260905052551 11 263 3.2 11.3 0.00 0.05 0.00 96 1004.3
20260905052051 11 140 3.2 16.1 0.00 0.05 0.00 96 1004.3
20260905051550 11 273 4.8 16.1 0.00 0.05 0.00 96 1004.2
20260905051049 11 311 4.8 12.9 0.00 0.05 0.00 96 1004.1
20260905050548 11 183 1.6 9.7 0.00 0.05 0.00 96 1004.1
20260905050054 11 299 3.2 9.7 0.00 0.05 0.00 96 1004.0
20260905045545 11 226 1.6 11.3 0.00 0.05 0.00 96 1004.1
20260905045045 11 275 1.6 11.3 0.00 0.05 0.00 96 1004.0
20260905044544 11 193 1.6 6.4 0.00 0.05 0.00 96 1003.9
20260905044045 11 212 1.6 6.4 0.00 0.05 0.00 96 1003.9
20260905043546 11 240 1.6 11.3 0.00 0.05 0.00 96 1003.8
20260905043041 11 305 3.2 11.3 0.00 0.05 0.00 96 1003.7
20260905042539 11 292 1.6 6.4 0.00 0.05 0.00 96 1003.7
20260905042039 11 327 1.6 9.7 0.00 0.05 0.00 96 1003.7
20260905041539 11 273 3.2 9.7 0.00 0.05 0.00 95 1003.6
20260905041038 11 263 1.6 11.3 0.00 0.05 0.00 96 1003.6
20260905040539 11 288 3.2 17.7 0.00 0.05 0.00 95 1003.6
20260905040038 11 171 4.8 17.7 0.00 0.05 0.00 95 1003.5
20260905035536 11 269 3.2 9.7 0.00 0.05 0.00 95 1003.5
20260905035036 11 213 1.6 6.4 0.00 0.05 0.00 95 1003.5
20260905034537 11 257 3.2 6.4 0.00 0.05 0.00 95 1003.4
20260905034039 11 303 1.6 8.0 0.00 0.05 0.00 95 1003.4
20260905033534 11 18 1.6 11.3 0.00 0.05 0.00 95 1003.3
20260905033034 11 209 1.6 11.3 0.00 0.05 0.00 95 1003.3
20260905032533 11 309 1.6 11.3 0.00 0.05 0.00 95 1003.2
20260905032032 11 248 1.6 11.3 0.00 0.05 0.00 95 1003.2
20260905031535 11 262 3.2 11.3 0.00 0.05 0.00 95 1003.1
20260905031031 11 219 1.6 11.3 0.00 0.05 0.00 95 1003.1
20260905030531 11 272 1.6 11.3 0.00 0.05 0.00 95 1003.0
20260905030031 11 117 1.6 11.3 0.00 0.05 0.00 95 1002.9
20260905025530 12 268 1.6 11.3 0.00 0.05 0.00 95 1003.0
20260905025032 12 277 3.2 19.3 0.00 0.05 0.00 95 1002.9
20260905024530 11 286 3.2 19.3 0.00 0.05 0.00 95 1002.9
20260905024029 11 256 1.6 14.5 0.00 0.05 0.00 95 1002.9
20260905023529 11 263 3.2 14.5 0.00 0.05 0.00 95 1003.0
20260905023027 11 215 1.6 12.9 0.00 0.05 0.00 95 1002.9
20260905022526 11 328 3.2 12.9 0.00 0.05 0.00 95 1002.8
20260905022026 11 338 1.6 9.7 0.00 0.05 0.00 95 1002.7
20260905021536 11 226 3.2 8.0 0.00 0.05 0.00 95 1002.6
20260905021024 11 327 1.6 8.0 0.00 0.05 0.00 95 1002.6
20260905020524 11 307 3.2 9.7 0.00 0.05 0.00 95 1002.6
20260905020027 11 188 1.6 12.9 0.00 0.05 0.00 95 1002.5
20260905015523 11 272 3.2 12.9 0.00 0.05 0.00 95 1002.5
20260905015023 11 192 1.6 11.3 0.00 0.05 0.00 95 1002.5
20260905014521 11 159 1.6 16.1 0.00 0.05 0.00 95 1002.4
20260905014021 12 298 3.2 16.1 0.00 0.05 0.00 95 1002.4
20260905013524 12 198 3.2 16.1 0.00 0.05 0.00 96 1002.3
20260905013024 12 238 6.4 16.1 0.00 0.05 0.00 95 1002.3
20260905012520 12 131 3.2 9.7 0.00 0.05 0.00 96 1002.2
20260905012019 12 194 1.6 12.9 0.00 0.05 0.00 96 1002.2
20260905011519 12 284 4.8 12.9 0.00 0.05 0.00 96 1002.2
20260905011019 12 275 1.6 12.9 0.00 0.05 0.00 96 1002.2
20260905010518 12 192 3.2 12.9 0.00 0.05 0.00 96 1002.1
20260905010023 12 277 3.2 14.5 0.00 0.05 0.00 96 1002.2
20260905005516 12 172 1.6 14.5 0.00 0.05 0.00 96 1002.1
20260905005017 12 286 1.6 11.3 0.00 0.05 0.00 96 1002.1
20260905004515 12 296 1.6 16.1 0.00 0.05 0.00 96 1002.0
20260905004015 12 190 4.8 16.1 0.00 0.05 0.00 96 1001.9
20260905003517 12 258 3.2 12.9 0.00 0.05 0.00 96 1001.9
20260905003015 12 305 3.2 11.3 0.00 0.05 0.00 96 1001.9
20260905002512 12 323 3.2 11.3 0.00 0.05 0.00 96 1001.8
20260905002013 12 294 3.2 12.9 0.00 0.05 0.00 96 1001.8
20260905001512 12 300 3.2 12.9 0.00 0.05 0.00 96 1001.7
20260905001011 12 139 1.6 8.0 0.00 0.05 0.00 96 1001.7
20260905000511 12 270 3.2 14.5 0.00 0.05 0.00 96 1001.6
20260905000014 12 286 3.2 14.5 0.00 0.05 0.00 96 1001.6
20260904235510 12 236 3.2 11.3 0.00 0.05 0.00 96 1001.6
20260904235009 12 174 1.6 11.3 0.00 0.05 0.00 96 1001.5
20260904234508 12 136 1.6 8.0 0.00 0.05 0.00 96 1001.5
20260904234009 12 205 0.0 9.7 0.00 0.05 0.00 96 1001.4
20260904233508 12 314 1.6 12.9 0.00 0.05 0.00 96 1001.4
20260904233008 12 225 3.2 12.9 0.00 0.05 0.00 96 1001.3
20260904232506 12 200 1.6 12.9 0.00 0.05 0.00 96 1001.4
20260904232008 12 252 3.2 14.5 0.00 0.05 0.00 96 1001.3
20260904231506 12 320 0.0 8.0 0.00 0.05 0.00 95 1001.3
20260904231005 12 299 1.6 12.9 0.00 0.05 0.00 95 1001.3
20260904230506 12 221 1.6 6.4 0.00 0.05 0.00 95 1001.3
20260904230005 12 299 1.6 6.4 0.00 0.05 0.00 95 1001.3
20260904225503 12 226 0.0 4.8 0.00 0.05 0.00 95 1001.2
20260904225006 12 265 0.0 6.4 0.00 0.05 0.00 95 1001.2
20260904224503 12 257 0.0 8.0 0.00 0.05 0.00 95 1001.2
20260904224003 12 287 1.6 8.0 0.00 0.05 0.00 95 1001.1
20260904223502 12 228 1.6 6.4 0.00 0.05 0.00 95 1001.0
20260904223002 12 197 1.6 4.8 0.00 0.05 0.00 95 1000.9
20260904222503 12 244 0.0 9.7 0.00 0.05 0.00 95 1000.9
20260904222100 12 193 3.2 11.3 0.00 0.05 0.00 95 1001.0
20260904221604 12 284 3.2 6.4 0.00 0.05 0.00 95 1001.0
20260904221100 12 248 1.6 9.7 0.00 0.05 0.00 95 1000.9
20260904220600 12 216 3.2 8.0 0.00 0.05 0.00 95 1001.0
20260904220110 12 243 1.6 11.3 0.00 0.05 0.00 95 1000.9
20260904215600 12 214 3.2 11.3 0.00 0.05 0.05 95 1000.9
20260904215101 12 196 3.2 8.0 0.00 0.05 0.05 95 1000.8